| time (UTC) | temp C | wind direction | speed KPH | gust KPH | rain 1hr cm | rain 24hr cm | rain mn cm | humidity % | barometer mb |
| 20260506163335 | 12 | 161 | 3.2 | 9.7 | 0.00 | 0.00 | 0.00 | 64 | 1013.4 |
| 20260506162833 | 12 | 163 | 3.2 | 9.7 | 0.00 | 0.00 | 0.00 | 61 | 1013.3 |
| 20260506162332 | 12 | 175 | 3.2 | 8.0 | 0.00 | 0.00 | 0.00 | 61 | 1013.2 |
| 20260506161818 | 12 | 171 | 3.2 | 8.0 | 0.00 | 0.00 | 0.00 | 61 | 1013.3 |
| 20260506161331 | 12 | 203 | 1.6 | 6.4 | 0.00 | 0.00 | 0.00 | 57 | 1013.3 |
| 20260506160816 | 12 | 233 | 1.6 | 6.4 | 0.00 | 0.00 | 0.00 | 55 | 1013.3 |
| 20260506160328 | 12 | 183 | 1.6 | 4.8 | 0.00 | 0.00 | 0.00 | 55 | 1013.3 |
| 20260506155831 | 11 | 183 | 3.2 | 4.8 | 0.00 | 0.00 | 0.00 | 59 | 1013.2 |
| 20260506155341 | 11 | 186 | 3.2 | 4.8 | 0.00 | 0.00 | 0.00 | 64 | 1013.2 |
| 20260506154843 | 11 | 197 | 1.6 | 6.4 | 0.00 | 0.00 | 0.00 | 60 | 1013.1 |
| 20260506154334 | 11 | 196 | 1.6 | 6.4 | 0.00 | 0.00 | 0.00 | 60 | 1013.2 |
| 20260506153820 | 11 | 167 | 4.8 | 6.4 | 0.00 | 0.00 | 0.00 | 61 | 1013.2 |
| 20260506153326 | 11 | 142 | 1.6 | 6.4 | 0.00 | 0.00 | 0.00 | 61 | 1013.2 |
| 20260506152832 | 11 | 184 | 1.6 | 4.8 | 0.00 | 0.00 | 0.00 | 60 | 1013.2 |
| 20260506152321 | 11 | 164 | 1.6 | 4.8 | 0.00 | 0.00 | 0.00 | 61 | 1013.2 |
| 20260506151825 | 11 | 333 | 1.6 | 3.2 | 0.00 | 0.00 | 0.00 | 60 | 1013.1 |
| 20260506151327 | 10 | 165 | 1.6 | 8.0 | 0.00 | 0.00 | 0.00 | 61 | 1013.1 |
| 20260506150853 | 10 | 165 | 3.2 | 8.0 | 0.00 | 0.00 | 0.00 | 62 | 1013.1 |
| 20260506150335 | 10 | 309 | 3.2 | 8.0 | 0.00 | 0.00 | 0.00 | 65 | 1013.1 |
| 20260506145848 | 10 | 330 | 1.6 | 4.8 | 0.00 | 0.00 | 0.00 | 63 | 1013.1 |
| 20260506145336 | 10 | 215 | 1.6 | 4.8 | 0.00 | 0.00 | 0.00 | 67 | 1013.2 |
| 20260506144820 | 9 | 150 | 1.6 | 3.2 | 0.00 | 0.00 | 0.00 | 66 | 1013.0 |
| 20260506144355 | 9 | 107 | 1.6 | 4.8 | 0.00 | 0.00 | 0.00 | 71 | 1012.9 |
| 20260506143817 | 9 | 175 | 3.2 | 8.0 | 0.00 | 0.00 | 0.00 | 70 | 1012.8 |
| 20260506143322 | 8 | 175 | 1.6 | 8.0 | 0.00 | 0.00 | 0.00 | 72 | 1012.8 |
| 20260506142852 | 8 | 164 | 3.2 | 8.0 | 0.00 | 0.00 | 0.00 | 72 | 1012.8 |
| 20260506142334 | 8 | 168 | 3.2 | 8.0 | 0.00 | 0.00 | 0.00 | 73 | 1012.7 |
| 20260506141837 | 8 | 169 | 3.2 | 8.0 | 0.00 | 0.00 | 0.00 | 74 | 1012.6 |
| 20260506141322 | 8 | 178 | 1.6 | 4.8 | 0.00 | 0.00 | 0.00 | 75 | 1012.6 |
| 20260506140851 | 8 | 178 | 3.2 | 4.8 | 0.00 | 0.00 | 0.00 | 77 | 1012.4 |
| 20260506140337 | 7 | 173 | 3.2 | 6.4 | 0.00 | 0.00 | 0.00 | 78 | 1012.4 |
| 20260506135825 | 7 | 202 | 4.8 | 8.0 | 0.00 | 0.00 | 0.00 | 78 | 1012.5 |
| 20260506135337 | 7 | 185 | 3.2 | 8.0 | 0.00 | 0.00 | 0.00 | 78 | 1012.4 |
| 20260506134818 | 7 | 170 | 1.6 | 3.2 | 0.00 | 0.00 | 0.00 | 79 | 1012.3 |
| 20260506134321 | 7 | 252 | 1.6 | 1.6 | 0.00 | 0.00 | 0.00 | 80 | 1012.4 |
| 20260506133834 | 6 | 252 | 0.0 | 3.2 | 0.00 | 0.00 | 0.00 | 81 | 1012.4 |
| 20260506133321 | 6 | 252 | 1.6 | 3.2 | 0.00 | 0.00 | 0.00 | 83 | 1012.3 |
| 20260506132827 | 6 | 255 | 0.0 | 4.8 | 0.00 | 0.00 | 0.00 | 84 | 1012.2 |
| 20260506132319 | 6 | 240 | 1.6 | 3.2 | 0.00 | 0.00 | 0.00 | 86 | 1012.1 |
| 20260506131826 | 6 | 240 | 1.6 | 4.8 | 0.00 | 0.00 | 0.00 | 87 | 1012.0 |
| 20260506131332 | 6 | 240 | 1.6 | 4.8 | 0.00 | 0.00 | 0.00 | 88 | 1012.0 |
| 20260506130836 | 5 | 211 | 0.0 | 3.2 | 0.00 | 0.00 | 0.00 | 90 | 1012.0 |
| 20260506130319 | 5 | 213 | 0.0 | 4.8 | 0.00 | 0.00 | 0.00 | 90 | 1011.9 |
| 20260506125824 | 5 | 213 | 0.0 | 4.8 | 0.00 | 0.00 | 0.00 | 90 | 1011.8 |
| 20260506125335 | 5 | 97 | 0.0 | 1.6 | 0.00 | 0.00 | 0.00 | 90 | 1011.9 |
| 20260506124837 | 5 | 97 | 0.0 | 3.2 | 0.00 | 0.00 | 0.00 | 90 | 1011.9 |
| 20260506124321 | 5 | 97 | 0.0 | 4.8 | 0.00 | 0.00 | 0.00 | 90 | 1012.0 |
| 20260506123823 | 4 | 45 | 1.6 | 4.8 | 0.00 | 0.00 | 0.00 | 90 | 1012.1 |
| 20260506123328 | 4 | 49 | 1.6 | 4.8 | 0.00 | 0.00 | 0.00 | 90 | 1012.0 |
| 20260506122857 | 4 | 360 | 1.6 | 4.8 | 0.00 | 0.00 | 0.00 | 90 | 1012.0 |
| 20260506122321 | 3 | 332 | 0.0 | 3.2 | 0.00 | 0.00 | 0.00 | 89 | 1012.0 |
| 20260506121857 | 3 | 332 | 0.0 | 3.2 | 0.00 | 0.00 | 0.00 | 89 | 1011.9 |
| 20260506121327 | 3 | 332 | 0.0 | 0.0 | 0.00 | 0.00 | 0.00 | 89 | 1011.8 |
| 20260506120827 | 3 | 332 | 0.0 | 0.0 | 0.00 | 0.00 | 0.00 | 88 | 1011.9 |
| 20260506120331 | 3 | 332 | 0.0 | 0.0 | 0.00 | 0.00 | 0.00 | 88 | 1011.8 |
| 20260506115840 | 3 | 332 | 0.0 | 0.0 | 0.00 | 0.00 | 0.00 | 87 | 1011.8 |
| 20260506115349 | 3 | 332 | 0.0 | 0.0 | 0.00 | 0.00 | 0.00 | 86 | 1011.6 |
| 20260506114837 | 3 | 332 | 0.0 | 0.0 | 0.00 | 0.00 | 0.00 | 85 | 1011.6 |
| 20260506114336 | 3 | 332 | 0.0 | 0.0 | 0.00 | 0.00 | 0.00 | 85 | 1011.4 |
| 20260506113836 | 3 | 332 | 0.0 | 0.0 | 0.00 | 0.00 | 0.00 | 84 | 1011.3 |
| 20260506113330 | 3 | 332 | 0.0 | 0.0 | 0.00 | 0.00 | 0.00 | 84 | 1011.3 |
| 20260506112832 | 3 | 332 | 0.0 | 0.0 | 0.00 | 0.00 | 0.00 | 84 | 1011.2 |
| 20260506112322 | 3 | 332 | 0.0 | 0.0 | 0.00 | 0.00 | 0.00 | 83 | 1011.0 |
| 20260506111832 | 3 | 332 | 0.0 | 0.0 | 0.00 | 0.00 | 0.00 | 83 | 1010.9 |
| 20260506111321 | 3 | 332 | 0.0 | 0.0 | 0.00 | 0.00 | 0.00 | 83 | 1010.9 |
| 20260506110826 | 3 | 332 | 0.0 | 0.0 | 0.00 | 0.00 | 0.00 | 83 | 1010.7 |
| 20260506110317 | 3 | 332 | 0.0 | 0.0 | 0.00 | 0.00 | 0.00 | 83 | 1010.7 |
| 20260506105823 | 3 | 332 | 0.0 | 0.0 | 0.00 | 0.00 | 0.00 | 83 | 1010.4 |
| 20260506105332 | 3 | 332 | 0.0 | 0.0 | 0.00 | 0.00 | 0.00 | 83 | 1010.5 |
| 20260506104842 | 3 | 332 | 0.0 | 0.0 | 0.00 | 0.00 | 0.00 | 83 | 1010.5 |
| 20260506104331 | 3 | 332 | 0.0 | 0.0 | 0.00 | 0.00 | 0.00 | 83 | 1010.4 |
| 20260506103817 | 3 | 332 | 0.0 | 0.0 | 0.00 | 0.00 | 0.00 | 83 | 1010.4 |
| 20260506103331 | 3 | 332 | 0.0 | 0.0 | 0.00 | 0.00 | 0.00 | 82 | 1010.4 |
| 20260506102844 | 3 | 332 | 0.0 | 0.0 | 0.00 | 0.00 | 0.00 | 83 | 1010.6 |
| 20260506102346 | 3 | 332 | 0.0 | 0.0 | 0.00 | 0.00 | 0.00 | 82 | 1010.6 |
| 20260506101825 | 3 | 332 | 0.0 | 0.0 | 0.00 | 0.00 | 0.00 | 82 | 1010.4 |
| 20260506101333 | 3 | 332 | 0.0 | 0.0 | 0.00 | 0.00 | 0.00 | 82 | 1010.6 |
| 20260506100838 | 3 | 332 | 0.0 | 0.0 | 0.00 | 0.00 | 0.00 | 82 | 1010.7 |
| 20260506100330 | 3 | 332 | 0.0 | 0.0 | 0.00 | 0.00 | 0.00 | 82 | 1010.8 |
| 20260506095818 | 3 | 332 | 0.0 | 0.0 | 0.00 | 0.00 | 0.00 | 82 | 1010.8 |
| 20260506095321 | 3 | 332 | 0.0 | 0.0 | 0.00 | 0.00 | 0.00 | 82 | 1010.7 |
| 20260506094820 | 4 | 332 | 0.0 | 0.0 | 0.00 | 0.00 | 0.00 | 82 | 1010.7 |
| 20260506094327 | 4 | 332 | 0.0 | 0.0 | 0.00 | 0.00 | 0.00 | 82 | 1010.6 |
| 20260506093830 | 4 | 332 | 0.0 | 0.0 | 0.00 | 0.00 | 0.00 | 82 | 1010.5 |
| 20260506093331 | 4 | 332 | 0.0 | 0.0 | 0.00 | 0.00 | 0.00 | 82 | 1010.5 |
| 20260506092831 | 4 | 332 | 0.0 | 0.0 | 0.00 | 0.00 | 0.00 | 82 | 1010.5 |
| 20260506092321 | 4 | 332 | 0.0 | 0.0 | 0.00 | 0.00 | 0.00 | 82 | 1010.4 |
| 20260506091827 | 4 | 332 | 0.0 | 0.0 | 0.00 | 0.00 | 0.00 | 82 | 1010.4 |
| 20260506091328 | 4 | 332 | 0.0 | 0.0 | 0.00 | 0.00 | 0.00 | 82 | 1010.3 |
| 20260506090858 | 4 | 332 | 0.0 | 0.0 | 0.00 | 0.00 | 0.00 | 82 | 1010.2 |
| 20260506090340 | 5 | 332 | 0.0 | 0.0 | 0.00 | 0.00 | 0.00 | 82 | 1010.1 |
| 20260506085825 | 5 | 332 | 0.0 | 0.0 | 0.00 | 0.00 | 0.00 | 82 | 1010.0 |
| 20260506085358 | 5 | 332 | 0.0 | 0.0 | 0.00 | 0.00 | 0.00 | 82 | 1010.0 |
| 20260506084821 | 5 | 332 | 0.0 | 0.0 | 0.00 | 0.00 | 0.00 | 82 | 1010.0 |
| 20260506084325 | 5 | 332 | 0.0 | 0.0 | 0.00 | 0.00 | 0.00 | 82 | 1010.0 |
| 20260506083827 | 5 | 332 | 0.0 | 0.0 | 0.00 | 0.00 | 0.00 | 82 | 1009.9 |
| 20260506083332 | 5 | 332 | 0.0 | 0.0 | 0.00 | 0.00 | 0.00 | 82 | 1009.9 |
| 20260506082840 | 5 | 332 | 0.0 | 0.0 | 0.00 | 0.00 | 0.00 | 82 | 1010.0 |
| 20260506082344 | 5 | 332 | 0.0 | 0.0 | 0.00 | 0.00 | 0.00 | 81 | 1009.8 |
| 20260506081833 | 5 | 332 | 0.0 | 0.0 | 0.00 | 0.00 | 0.00 | 81 | 1009.9 |
| 20260506081329 | 5 | 332 | 0.0 | 0.0 | 0.00 | 0.00 | 0.00 | 81 | 1009.9 |
| 20260506080820 | 5 | 332 | 0.0 | 0.0 | 0.00 | 0.00 | 0.00 | 81 | 1009.8 |
| 20260506080322 | 5 | 332 | 0.0 | 0.0 | 0.00 | 0.00 | 0.00 | 81 | 1009.8 |
| 20260506073340 | 6 | 332 | 0.0 | 0.0 | 0.00 | 0.03 | 0.00 | 79 | 1009.8 |
| 20260506072839 | 6 | 332 | 0.0 | 0.0 | 0.00 | 0.03 | 0.00 | 79 | 1009.9 |
| 20260506072327 | 6 | 332 | 0.0 | 0.0 | 0.00 | 0.03 | 0.00 | 79 | 1009.9 |
| 20260506071833 | 6 | 332 | 0.0 | 0.0 | 0.00 | 0.03 | 0.00 | 79 | 1009.9 |
| 20260506071339 | 6 | 332 | 0.0 | 0.0 | 0.00 | 0.03 | 0.00 | 79 | 1009.9 |
| 20260506070845 | 6 | 332 | 0.0 | 0.0 | 0.00 | 0.03 | 0.00 | 79 | 1009.9 |
| 20260506070330 | 6 | 332 | 0.0 | 0.0 | 0.00 | 0.03 | 0.00 | 80 | 1010.0 |
| 20260506062336 | 6 | 332 | 0.0 | 0.0 | 0.00 | 0.03 | 0.00 | 82 | 1010.0 |
| 20260506061820 | 6 | 332 | 0.0 | 0.0 | 0.00 | 0.03 | 0.00 | 82 | 1010.0 |
| 20260506061323 | 6 | 332 | 0.0 | 0.0 | 0.00 | 0.03 | 0.00 | 82 | 1010.1 |
| 20260506060828 | 6 | 332 | 0.0 | 0.0 | 0.00 | 0.03 | 0.00 | 82 | 1010.1 |
| 20260506060323 | 6 | 332 | 0.0 | 0.0 | 0.00 | 0.03 | 0.00 | 82 | 1010.1 |
| 20260506051326 | 6 | 187 | 0.0 | 0.0 | 0.00 | 0.03 | 0.00 | 81 | 1010.2 |
| 20260506050829 | 6 | 187 | 0.0 | 0.0 | 0.00 | 0.03 | 0.00 | 81 | 1010.1 |
| 20260506050338 | 6 | 187 | 0.0 | 1.6 | 0.00 | 0.03 | 0.00 | 81 | 1010.3 |
| 20260506044847 | 6 | 187 | 0.0 | 1.6 | 0.00 | 0.03 | 0.00 | 80 | 1010.0 |
| 20260506044331 | 6 | 187 | 0.0 | 1.6 | 0.00 | 0.03 | 0.00 | 80 | 1010.1 |
| 20260506043833 | 6 | 187 | 0.0 | 0.0 | 0.00 | 0.03 | 0.00 | 79 | 1010.0 |
| 20260506043323 | 6 | 187 | 0.0 | 0.0 | 0.00 | 0.03 | 0.00 | 79 | 1010.1 |
| 20260506042826 | 6 | 187 | 0.0 | 0.0 | 0.00 | 0.03 | 0.00 | 78 | 1010.1 |
| 20260506042318 | 6 | 187 | 0.0 | 0.0 | 0.00 | 0.03 | 0.00 | 78 | 1009.7 |
| 20260506041848 | 6 | 187 | 0.0 | 0.0 | 0.00 | 0.03 | 0.00 | 78 | 1009.4 |
| 20260506041335 | 7 | 187 | 0.0 | 0.0 | 0.00 | 0.03 | 0.00 | 77 | 1009.3 |
| 20260506040817 | 7 | 187 | 0.0 | 0.0 | 0.00 | 0.03 | 0.00 | 76 | 1009.3 |
| 20260506040324 | 7 | 187 | 0.0 | 0.0 | 0.00 | 0.03 | 0.00 | 76 | 1009.4 |
| 20260506035824 | 7 | 187 | 0.0 | 0.0 | 0.00 | 0.08 | 0.03 | 75 | 1009.4 |
| 20260506035358 | 7 | 187 | 0.0 | 0.0 | 0.00 | 0.08 | 0.03 | 75 | 1009.5 |
| 20260506034827 | 7 | 187 | 0.0 | 0.0 | 0.00 | 0.08 | 0.03 | 74 | 1009.5 |
| 20260506034331 | 7 | 187 | 0.0 | 0.0 | 0.00 | 0.08 | 0.03 | 74 | 1009.3 |
| 20260506033818 | 7 | 187 | 0.0 | 0.0 | 0.00 | 0.08 | 0.03 | 74 | 1009.5 |
| 20260506033326 | 7 | 187 | 0.0 | 0.0 | 0.00 | 0.08 | 0.03 | 73 | 1009.5 |
| 20260506032825 | 7 | 187 | 0.0 | 0.0 | 0.00 | 0.08 | 0.03 | 73 | 1009.4 |
| 20260506032331 | 7 | 187 | 0.0 | 0.0 | 0.00 | 0.08 | 0.03 | 73 | 1009.2 |
| 20260506031816 | 7 | 187 | 0.0 | 0.0 | 0.00 | 0.08 | 0.03 | 73 | 1009.3 |
| 20260506031352 | 7 | 187 | 0.0 | 0.0 | 0.00 | 0.08 | 0.03 | 72 | 1009.1 |
| 20260506030834 | 7 | 187 | 0.0 | 0.0 | 0.00 | 0.08 | 0.03 | 72 | 1009.1 |
| 20260506030324 | 7 | 187 | 0.0 | 0.0 | 0.00 | 0.08 | 0.03 | 72 | 1009.3 |
| 20260506025827 | 7 | 187 | 0.0 | 0.0 | 0.00 | 0.10 | 0.03 | 72 | 1009.4 |
| 20260506025335 | 7 | 187 | 0.0 | 0.0 | 0.00 | 0.10 | 0.03 | 72 | 1009.4 |
| 20260506024838 | 7 | 187 | 0.0 | 0.0 | 0.00 | 0.10 | 0.03 | 72 | 1009.4 |
| 20260506024348 | 7 | 187 | 0.0 | 0.0 | 0.00 | 0.10 | 0.03 | 71 | 1009.4 |
| 20260506023833 | 7 | 187 | 0.0 | 0.0 | 0.00 | 0.10 | 0.03 | 71 | 1009.2 |
| 20260506023326 | 8 | 187 | 0.0 | 0.0 | 0.00 | 0.10 | 0.03 | 71 | 1009.1 |
| 20260506022832 | 8 | 187 | 0.0 | 0.0 | 0.00 | 0.10 | 0.03 | 70 | 1008.9 |
| 20260506022324 | 8 | 187 | 0.0 | 0.0 | 0.00 | 0.10 | 0.03 | 70 | 1008.9 |
| 20260506021829 | 8 | 187 | 0.0 | 0.0 | 0.00 | 0.10 | 0.03 | 70 | 1009.0 |
| 20260506021324 | 8 | 187 | 0.0 | 0.0 | 0.00 | 0.10 | 0.03 | 70 | 1009.0 |
| 20260506020831 | 8 | 187 | 0.0 | 0.0 | 0.00 | 0.10 | 0.03 | 69 | 1009.0 |
| 20260506020334 | 8 | 187 | 0.0 | 0.0 | 0.00 | 0.10 | 0.03 | 69 | 1008.8 |
| 20260506015835 | 8 | 187 | 0.0 | 0.0 | 0.00 | 0.48 | 0.03 | 69 | 1008.7 |
| 20260506015343 | 8 | 187 | 0.0 | 0.0 | 0.00 | 0.48 | 0.03 | 69 | 1008.5 |
| 20260506014823 | 8 | 187 | 0.0 | 0.0 | 0.00 | 0.48 | 0.03 | 69 | 1008.5 |
| 20260506014332 | 8 | 187 | 0.0 | 0.0 | 0.00 | 0.48 | 0.03 | 68 | 1008.4 |
| 20260506013835 | 8 | 187 | 0.0 | 0.0 | 0.00 | 0.48 | 0.03 | 68 | 1008.4 |
| 20260506013341 | 8 | 187 | 0.0 | 0.0 | 0.00 | 0.48 | 0.03 | 68 | 1008.3 |
| 20260506012825 | 9 | 187 | 0.0 | 0.0 | 0.00 | 0.48 | 0.03 | 68 | 1008.0 |
| 20260506012400 | 9 | 187 | 0.0 | 0.0 | 0.00 | 0.48 | 0.03 | 67 | 1008.0 |
| 20260506011821 | 9 | 187 | 0.0 | 0.0 | 0.00 | 0.48 | 0.03 | 67 | 1007.8 |
| 20260506011333 | 9 | 187 | 0.0 | 0.0 | 0.00 | 0.48 | 0.03 | 67 | 1007.8 |
| 20260506010821 | 9 | 187 | 0.0 | 0.0 | 0.00 | 0.48 | 0.03 | 68 | 1007.8 |
| 20260506010329 | 10 | 187 | 0.0 | 0.0 | 0.00 | 0.48 | 0.03 | 68 | 1007.7 |
| 20260506005836 | 10 | 187 | 0.0 | 0.0 | 0.00 | 0.48 | 0.03 | 68 | 1007.7 |
| 20260506005326 | 10 | 187 | 0.0 | 0.0 | 0.00 | 0.48 | 0.03 | 67 | 1007.8 |
| 20260506004838 | 10 | 187 | 0.0 | 0.0 | 0.00 | 0.48 | 0.03 | 66 | 1007.8 |
| 20260506004321 | 10 | 187 | 0.0 | 0.0 | 0.00 | 0.48 | 0.03 | 67 | 1007.8 |
| 20260506003854 | 10 | 187 | 0.0 | 0.0 | 0.00 | 0.48 | 0.03 | 66 | 1007.9 |
| 20260506003335 | 10 | 187 | 0.0 | 0.0 | 0.00 | 0.48 | 0.03 | 67 | 1007.9 |
| 20260506002841 | 10 | 187 | 0.0 | 0.0 | 0.00 | 0.48 | 0.03 | 65 | 1007.9 |
| 20260506002323 | 10 | 187 | 0.0 | 0.0 | 0.00 | 0.48 | 0.03 | 65 | 1007.8 |
| 20260506001824 | 11 | 187 | 0.0 | 0.0 | 0.00 | 0.48 | 0.03 | 65 | 1007.8 |
| 20260506001350 | 11 | 187 | 0.0 | 0.0 | 0.00 | 0.48 | 0.03 | 65 | 1007.7 |
| 20260506000826 | 11 | 187 | 0.0 | 0.0 | 0.00 | 0.48 | 0.03 | 64 | 1007.7 |
| 20260506000330 | 11 | 187 | 0.0 | 1.6 | 0.00 | 0.48 | 0.03 | 63 | 1007.8 |
| 20260505235832 | 11 | 187 | 0.0 | 1.6 | 0.00 | 0.48 | 0.03 | 63 | 1007.9 |
| 20260505235319 | 11 | 187 | 0.0 | 3.2 | 0.00 | 0.48 | 0.03 | 62 | 1008.0 |
| 20260505234827 | 11 | 187 | 0.0 | 3.2 | 0.00 | 0.48 | 0.03 | 62 | 1008.0 |
| 20260505234318 | 11 | 187 | 1.6 | 3.2 | 0.00 | 0.48 | 0.03 | 62 | 1007.9 |
| 20260505233834 | 11 | 187 | 0.0 | 3.2 | 0.00 | 0.48 | 0.03 | 61 | 1007.9 |
| 20260505233319 | 11 | 187 | 0.0 | 1.6 | 0.00 | 0.48 | 0.03 | 61 | 1007.9 |
| 20260505232824 | 11 | 187 | 0.0 | 1.6 | 0.00 | 0.48 | 0.03 | 61 | 1007.9 |
| 20260505232315 | 11 | 187 | 0.0 | 3.2 | 0.00 | 0.48 | 0.03 | 60 | 1007.9 |
| 20260505231820 | 11 | 187 | 0.0 | 3.2 | 0.00 | 0.48 | 0.03 | 61 | 1007.9 |
| 20260505231334 | 11 | 187 | 0.0 | 1.6 | 0.00 | 0.48 | 0.03 | 61 | 1008.0 |
| 20260505230826 | 11 | 187 | 0.0 | 4.8 | 0.00 | 0.48 | 0.03 | 61 | 1008.0 |
| 20260505230332 | 11 | 187 | 0.0 | 4.8 | 0.00 | 0.48 | 0.03 | 62 | 1008.0 |
| 20260505225833 | 11 | 187 | 1.6 | 3.2 | 0.00 | 0.48 | 0.03 | 61 | 1008.0 |
| 20260505225346 | 11 | 187 | 0.0 | 3.2 | 0.00 | 0.48 | 0.03 | 61 | 1008.1 |
| 20260505224842 | 11 | 187 | 1.6 | 3.2 | 0.00 | 0.48 | 0.03 | 61 | 1008.0 |
| 20260505224328 | 11 | 187 | 0.0 | 3.2 | 0.00 | 0.48 | 0.03 | 60 | 1008.1 |
| 20260505223832 | 11 | 187 | 0.0 | 3.2 | 0.00 | 0.48 | 0.03 | 60 | 1008.2 |
| 20260505223343 | 11 | 187 | 1.6 | 3.2 | 0.00 | 0.48 | 0.03 | 63 | 1008.2 |
| 20260505222831 | 11 | 187 | 0.0 | 3.2 | 0.00 | 0.48 | 0.03 | 64 | 1008.1 |
| 20260505222338 | 11 | 187 | 0.0 | 3.2 | 0.00 | 0.48 | 0.03 | 65 | 1008.1 |
| 20260505221840 | 11 | 187 | 1.6 | 3.2 | 0.00 | 0.48 | 0.03 | 63 | 1008.0 |
| 20260505221343 | 11 | 187 | 0.0 | 3.2 | 0.00 | 0.48 | 0.03 | 66 | 1008.0 |
| 20260505220831 | 11 | 187 | 0.0 | 3.2 | 0.00 | 0.48 | 0.03 | 65 | 1008.1 |
| 20260505220318 | 11 | 187 | 1.6 | 4.8 | 0.00 | 0.48 | 0.03 | 64 | 1008.1 |
| 20260505215818 | 11 | 187 | 1.6 | 4.8 | 0.00 | 0.48 | 0.03 | 64 | 1008.1 |
| 20260505215331 | 11 | 162 | 1.6 | 3.2 | 0.00 | 0.48 | 0.03 | 61 | 1008.1 |
| 20260505214814 | 11 | 161 | 0.0 | 3.2 | 0.00 | 0.48 | 0.03 | 62 | 1008.1 |
| 20260505214322 | 11 | 161 | 1.6 | 3.2 | 0.00 | 0.48 | 0.03 | 61 | 1008.1 |
| 20260505213831 | 11 | 161 | 1.6 | 3.2 | 0.00 | 0.48 | 0.03 | 60 | 1008.1 |
| 20260505213319 | 11 | 161 | 1.6 | 3.2 | 0.00 | 0.48 | 0.03 | 61 | 1008.1 |
| 20260505212825 | 11 | 140 | 1.6 | 4.8 | 0.00 | 0.48 | 0.03 | 59 | 1008.2 |
| 20260505212357 | 12 | 122 | 1.6 | 4.8 | 0.00 | 0.48 | 0.03 | 57 | 1008.2 |
| 20260505211821 | 12 | 122 | 0.0 | 4.8 | 0.00 | 0.48 | 0.03 | 57 | 1008.3 |
| 20260505211326 | 12 | 213 | 1.6 | 4.8 | 0.00 | 0.48 | 0.03 | 59 | 1008.1 |
| 20260505210830 | 12 | 213 | 1.6 | 4.8 | 0.00 | 0.48 | 0.03 | 59 | 1008.1 |
| 20260505210322 | 12 | 215 | 1.6 | 4.8 | 0.00 | 0.48 | 0.03 | 59 | 1008.1 |
| 20260505205828 | 12 | 206 | 1.6 | 4.8 | 0.00 | 0.48 | 0.03 | 59 | 1008.2 |
| 20260505205335 | 12 | 216 | 1.6 | 4.8 | 0.00 | 0.48 | 0.03 | 60 | 1008.4 |
| 20260505204820 | 12 | 188 | 1.6 | 4.8 | 0.00 | 0.48 | 0.03 | 58 | 1008.4 |
| 20260505204323 | 12 | 187 | 3.2 | 4.8 | 0.00 | 0.48 | 0.03 | 58 | 1008.4 |
| 20260505203826 | 12 | 116 | 1.6 | 4.8 | 0.00 | 0.48 | 0.03 | 59 | 1008.3 |
| 20260505203336 | 12 | 146 | 1.6 | 6.4 | 0.00 | 0.48 | 0.03 | 59 | 1008.4 |
| 20260505202839 | 12 | 228 | 3.2 | 6.4 | 0.00 | 0.48 | 0.03 | 61 | 1008.5 |
| 20260505202345 | 12 | 188 | 1.6 | 6.4 | 0.00 | 0.48 | 0.03 | 61 | 1008.5 |
| 20260505201847 | 12 | 202 | 1.6 | 6.4 | 0.00 | 0.48 | 0.03 | 60 | 1008.7 |
| 20260505201332 | 12 | 190 | 1.6 | 6.4 | 0.00 | 0.48 | 0.03 | 61 | 1008.7 |
| 20260505200836 | 12 | 161 | 1.6 | 6.4 | 0.00 | 0.48 | 0.03 | 63 | 1008.8 |
| 20260505200343 | 12 | 171 | 1.6 | 6.4 | 0.00 | 0.48 | 0.03 | 60 | 1008.7 |
| 20260505195822 | 12 | 171 | 1.6 | 6.4 | 0.00 | 0.48 | 0.03 | 63 | 1008.7 |
| 20260505195331 | 12 | 196 | 1.6 | 8.0 | 0.00 | 0.48 | 0.03 | 61 | 1008.8 |
| 20260505194836 | 12 | 221 | 3.2 | 8.0 | 0.00 | 0.48 | 0.03 | 61 | 1008.8 |
| 20260505194321 | 12 | 167 | 3.2 | 4.8 | 0.00 | 0.48 | 0.03 | 60 | 1008.8 |
| 20260505193854 | 12 | 172 | 1.6 | 6.4 | 0.00 | 0.48 | 0.03 | 59 | 1008.8 |
| 20260505193316 | 12 | 157 | 3.2 | 8.0 | 0.00 | 0.48 | 0.03 | 59 | 1008.7 |
| 20260505192821 | 12 | 223 | 1.6 | 6.4 | 0.00 | 0.48 | 0.03 | 58 | 1008.7 |
| 20260505192401 | 12 | 202 | 1.6 | 4.8 | 0.00 | 0.48 | 0.03 | 58 | 1008.7 |
| 20260505191834 | 12 | 207 | 3.2 | 4.8 | 0.00 | 0.48 | 0.03 | 60 | 1008.7 |
| 20260505191319 | 12 | 209 | 1.6 | 6.4 | 0.00 | 0.48 | 0.03 | 58 | 1008.7 |
| 20260505190821 | 12 | 212 | 3.2 | 6.4 | 0.00 | 0.48 | 0.03 | 59 | 1008.8 |
| 20260505190325 | 12 | 176 | 1.6 | 4.8 | 0.00 | 0.48 | 0.03 | 57 | 1008.6 |
| 20260505185835 | 12 | 176 | 1.6 | 6.4 | 0.00 | 0.48 | 0.03 | 57 | 1008.5 |
| 20260505185320 | 12 | 158 | 1.6 | 8.0 | 0.00 | 0.48 | 0.03 | 56 | 1008.4 |
| 20260505184825 | 12 | 157 | 3.2 | 8.0 | 0.00 | 0.48 | 0.03 | 58 | 1008.4 |
| 20260505184331 | 12 | 169 | 3.2 | 8.0 | 0.00 | 0.48 | 0.03 | 54 | 1008.3 |
| 20260505183817 | 12 | 194 | 3.2 | 8.0 | 0.00 | 0.48 | 0.03 | 55 | 1008.3 |
| 20260505183350 | 12 | 135 | 3.2 | 8.0 | 0.00 | 0.48 | 0.03 | 56 | 1008.3 |
| 20260505182816 | 12 | 178 | 1.6 | 4.8 | 0.00 | 0.48 | 0.03 | 56 | 1008.3 |
| 20260505182354 | 12 | 169 | 3.2 | 4.8 | 0.00 | 0.48 | 0.03 | 57 | 1008.4 |
| 20260505181832 | 12 | 171 | 3.2 | 6.4 | 0.00 | 0.48 | 0.03 | 58 | 1008.4 |
| 20260505181343 | 12 | 165 | 1.6 | 6.4 | 0.00 | 0.48 | 0.03 | 58 | 1008.4 |
| 20260505180825 | 12 | 13 | 1.6 | 4.8 | 0.00 | 0.48 | 0.03 | 56 | 1008.2 |
| 20260505180334 | 12 | 13 | 1.6 | 6.4 | 0.00 | 0.48 | 0.03 | 57 | 1008.1 |
| 20260505175817 | 12 | 18 | 3.2 | 6.4 | 0.00 | 0.48 | 0.03 | 57 | 1008.0 |
| 20260505175329 | 12 | 157 | 3.2 | 8.0 | 0.00 | 0.48 | 0.03 | 61 | 1008.1 |
| 20260505174835 | 12 | 167 | 1.6 | 8.0 | 0.00 | 0.48 | 0.03 | 59 | 1008.4 |
| 20260505174320 | 12 | 233 | 3.2 | 6.4 | 0.00 | 0.48 | 0.03 | 62 | 1008.4 |
| 20260505173822 | 12 | 212 | 1.6 | 8.0 | 0.00 | 0.48 | 0.03 | 61 | 1008.3 |
| 20260505173325 | 12 | 169 | 4.8 | 8.0 | 0.00 | 0.48 | 0.03 | 62 | 1008.1 |
| 20260505172834 | 12 | 171 | 1.6 | 6.4 | 0.00 | 0.48 | 0.03 | 64 | 1008.1 |
| 20260505172324 | 12 | 200 | 3.2 | 9.7 | 0.00 | 0.48 | 0.03 | 64 | 1008.0 |
| 20260505171823 | 12 | 229 | 3.2 | 9.7 | 0.00 | 0.48 | 0.03 | 64 | 1008.1 |
| 20260505171327 | 12 | 193 | 1.6 | 6.4 | 0.00 | 0.48 | 0.03 | 64 | 1008.0 |
| 20260505170834 | 12 | 190 | 1.6 | 9.7 | 0.00 | 0.48 | 0.03 | 64 | 1007.9 |
| 20260505170324 | 12 | 181 | 3.2 | 9.7 | 0.00 | 0.48 | 0.03 | 62 | 1007.8 |
| 20260505165857 | 12 | 277 | 1.6 | 6.4 | 0.00 | 0.48 | 0.03 | 62 | 1007.7 |
| 20260505165338 | 12 | 13 | 3.2 | 6.4 | 0.00 | 0.48 | 0.03 | 62 | 1007.5 |
| 20260505164850 | 12 | 225 | 1.6 | 8.0 | 0.00 | 0.48 | 0.03 | 64 | 1007.6 |
| 20260505164336 | 11 | 182 | 3.2 | 12.9 | 0.00 | 0.48 | 0.03 | 65 | 1007.5 |
| 20260505163817 | 11 | 224 | 3.2 | 12.9 | 0.00 | 0.48 | 0.03 | 64 | 1007.5 |